Moose Lake, MN

5:41 AM CST on December 13, 2019 (GMT -0600)
Moose Lake-Carlton County

Weather History for KMZH - October, 2019

Change the Weather History Date:

Saturday, October 19, 2019

  Actual Average Record
Temperature  
Mean Temperature 50 °F -  
Max Temperature 64 °F 54 °F 82 °F (2000)
Min Temperature 35 °F 28 °F 9 °F (1972)
Degree Days  
Heating Degree Days 14    
Moisture  
Dew Point 38 °F    
Average Humidity 59    
Maximum Humidity 87    
Minimum Humidity 30    
Precipitation  
Precipitation 0.00 in - - ()
Sea Level Pressure  
Sea Level Pressure 29.60 in    
Wind  
Wind Speed 6 mph (SW)    
Max Wind Speed 13 mph    
Max Gust Speed 20 mph    
Visibility 10 miles    
Events Rain    
Averages and records for this station are not official NWS values.
T = Trace of Precipitation, MM = Missing Value Source: NWS Daily Summary

Daily Weather History Graph

Daily Weather History Graph

Search for Another Location

Airport or City:

Astronomy

Oct. 19, 2019 Rise Set
Actual Time 7:33 AM CDT 6:17 PM CDT
Civil Twilight 7:03 AM CDT 6:48 PM CDT
Nautical Twilight 6:28 AM CDT 7:23 PM CDT
Astronomical Twilight 5:53 AM CDT 7:58 PM CDT
Moon 10:12 PM CDT (10/19) 1:21 PM CDT (10/19)
Length of Visible Light 11h 45m
Length of Day
10h 43m
Waning Gibbous, 69% of the Moon is Illuminated
Oct 19
Waning Gibbous
Oct 21
Last Quarter
Oct 27
New
Nov 4
First Quarter
Nov 12
Full

Hourly Weather History & Observations

Time (CDT) Temp. Windchill Dew Point Humidity Pressure Visibility Wind Dir Wind Speed Gust Speed Precip Events Conditions
12:15 AM 55.4 °F - 42.8 °F 63% 29.54 in 10.0 mi South 6.9 mph - N/A   Mostly Cloudy
12:35 AM 55.4 °F - 42.8 °F 63% 29.53 in 10.0 mi South 9.2 mph - N/A   Overcast
12:36 AM 55.4 °F - 42.8 °F 63% 29.53 in 10.0 mi South 9.2 mph - N/A   Overcast
12:55 AM 55.4 °F - 42.8 °F 63% 29.53 in 10.0 mi South 6.9 mph - N/A   Overcast
12:56 AM 55.4 °F - 42.8 °F 63% 29.53 in 10.0 mi South 5.8 mph - N/A   Overcast
1:18 AM 55.4 °F - 42.8 °F 63% 29.54 in 10.0 mi South 8.1 mph - N/A   Scattered Clouds
1:37 AM 55.4 °F - 42.8 °F 63% 29.54 in 10.0 mi South 6.9 mph - N/A   Clear
1:56 AM 55.4 °F - 42.8 °F 63% 29.53 in 10.0 mi South 4.6 mph - N/A   Clear
2:15 AM 53.6 °F - 42.8 °F 67% 29.53 in 10.0 mi South 6.9 mph - N/A   Clear
2:16 AM 53.6 °F - 42.8 °F 67% 29.53 in 10.0 mi South 6.9 mph - N/A   Clear
2:35 AM 53.6 °F - 42.8 °F 67% 29.53 in 10.0 mi South 5.8 mph - N/A   Clear
2:40 AM 53.6 °F - 42.8 °F 67% 29.54 in 10.0 mi South 6.9 mph - N/A   Clear
2:57 AM 53.6 °F - 42.8 °F 67% 29.54 in 10.0 mi South 5.8 mph - N/A   Clear
3:16 AM 53.6 °F - 42.8 °F 67% 29.54 in 10.0 mi SSW 6.9 mph - N/A   Clear
3:35 AM 53.6 °F - 42.8 °F 67% 29.54 in 10.0 mi SSW 5.8 mph - N/A   Clear
3:55 AM 51.8 °F - 42.8 °F 71% 29.54 in 10.0 mi SSW 5.8 mph - N/A   Clear
4:19 AM 51.8 °F - 42.8 °F 71% 29.54 in 10.0 mi SSW 6.9 mph - N/A   Clear
4:36 AM 51.8 °F - 42.8 °F 71% 29.55 in 10.0 mi SSW 8.1 mph - N/A   Clear
4:56 AM 51.8 °F - 42.8 °F 71% 29.55 in 10.0 mi SW 5.8 mph - N/A   Clear
5:15 AM 51.8 °F - 42.8 °F 71% 29.55 in 10.0 mi SW 5.8 mph - N/A   Clear
5:16 AM 51.8 °F - 42.8 °F 71% 29.56 in 10.0 mi SW 5.8 mph - N/A   Clear
5:35 AM 50.0 °F - 42.8 °F 76% 29.55 in 10.0 mi SW 3.5 mph - N/A   Clear
5:39 AM 50.0 °F - 42.8 °F 76% 29.55 in 10.0 mi SW 3.5 mph - N/A   Clear
6:15 AM 50.0 °F - 42.8 °F 76% 29.56 in 10.0 mi Calm Calm - N/A   Clear
6:35 AM 48.2 °F - 42.8 °F 82% 29.58 in 10.0 mi Calm Calm - N/A   Scattered Clouds
6:36 AM 48.2 °F - 42.8 °F 82% 29.58 in 10.0 mi South 3.5 mph - N/A   Scattered Clouds
6:55 AM 48.2 °F - 42.8 °F 82% 29.58 in 10.0 mi Calm Calm - N/A   Mostly Cloudy
6:56 AM 48.2 °F - 42.8 °F 82% 29.58 in 10.0 mi Calm Calm - N/A   Mostly Cloudy
7:19 AM 48.2 °F - 42.8 °F 82% 29.58 in 10.0 mi WSW 3.5 mph - N/A   Overcast
7:36 AM 48.2 °F - 42.8 °F 82% 29.58 in 10.0 mi SW 3.5 mph - N/A Rain Light Rain
7:55 AM 48.2 °F - 42.8 °F 82% 29.58 in 10.0 mi Calm Calm - N/A Rain Light Rain
7:56 AM 48.2 °F - 42.8 °F 82% 29.58 in 10.0 mi Calm Calm - N/A   Overcast
8:15 AM 46.4 °F 44.3 °F 42.8 °F 87% 29.58 in 10.0 mi SSW 4.6 mph - N/A   Overcast
8:16 AM 46.4 °F 44.3 °F 42.8 °F 87% 29.58 in 10.0 mi SSW 4.6 mph - N/A   Overcast
8:35 AM 50.0 °F - 42.8 °F 76% 29.59 in 10.0 mi WSW 3.5 mph - N/A   Overcast
8:40 AM 50.0 °F - 44.6 °F 82% 29.59 in 10.0 mi WSW 3.5 mph - N/A   Overcast
8:57 AM 50.0 °F - 44.6 °F 82% 29.59 in 10.0 mi Calm Calm - N/A   Overcast
9:15 AM 50.0 °F - 42.8 °F 76% 29.59 in 10.0 mi SW 3.5 mph - N/A   Overcast
9:35 AM 50.0 °F - 42.8 °F 76% 29.61 in 10.0 mi SW 4.6 mph - N/A   Overcast
9:36 AM 50.0 °F - 42.8 °F 76% 29.61 in 10.0 mi SW 5.8 mph - N/A   Overcast
9:55 AM 50.0 °F - 42.8 °F 76% 29.62 in 10.0 mi SW 4.6 mph - N/A   Overcast
9:56 AM 50.0 °F - 42.8 °F 76% 29.62 in 10.0 mi SW 4.6 mph - N/A   Overcast
10:18 AM 51.8 °F - 42.8 °F 71% 29.61 in 10.0 mi SW 5.8 mph - N/A   Scattered Clouds
10:36 AM 51.8 °F - 42.8 °F 71% 29.61 in 10.0 mi SW 4.6 mph - N/A   Clear
10:55 AM 51.8 °F - 42.8 °F 71% 29.61 in 10.0 mi SSW 5.8 mph - N/A   Clear
11:15 AM 51.8 °F - 42.8 °F 71% 29.61 in 10.0 mi SSW 5.8 mph - N/A   Clear
11:16 AM 53.6 °F - 42.8 °F 67% 29.61 in 10.0 mi SSW 5.8 mph - N/A   Clear
11:35 AM 53.6 °F - 42.8 °F 67% 29.61 in 10.0 mi SSW 5.8 mph - N/A   Clear
11:39 AM 53.6 °F - 42.8 °F 67% 29.61 in 10.0 mi SW 5.8 mph - N/A   Clear
11:57 AM 55.4 °F - 42.8 °F 63% 29.62 in 10.0 mi SSW 5.8 mph - N/A   Clear
12:15 PM 57.2 °F - 42.8 °F 59% 29.61 in 10.0 mi SSW 8.1 mph - N/A   Clear
12:35 PM 59.0 °F - 42.8 °F 55% 29.61 in 10.0 mi South 8.1 mph - N/A   Clear
12:55 PM 60.8 °F - 42.8 °F 52% 29.60 in 10.0 mi SSW 8.1 mph - N/A   Clear
12:56 PM 60.8 °F - 42.8 °F 52% 29.60 in 10.0 mi SSW 8.1 mph - N/A   Clear
1:18 PM 62.6 °F - 42.8 °F 48% 29.60 in 10.0 mi South 4.6 mph - N/A   Clear
1:36 PM 64.4 °F - 39.2 °F 40% 29.59 in 10.0 mi SW 12.7 mph 17.3 mph N/A   Clear
1:56 PM 64.4 °F - 35.6 °F 34% 29.58 in 10.0 mi SW 10.4 mph 16.1 mph N/A   Clear
2:15 PM 64.4 °F - 35.6 °F 34% 29.58 in 10.0 mi WNW 6.9 mph 16.1 mph N/A   Clear
2:16 PM 64.4 °F - 35.6 °F 34% 29.58 in 10.0 mi WNW 6.9 mph 16.1 mph N/A   Clear
2:35 PM 64.4 °F - 35.6 °F 34% 29.58 in 10.0 mi West 6.9 mph - N/A   Clear
2:40 PM 64.4 °F - 35.6 °F 34% 29.58 in 10.0 mi West 5.8 mph - N/A   Clear
2:57 PM 64.4 °F - 33.8 °F 32% 29.58 in 10.0 mi West 8.1 mph - N/A   Clear
3:15 PM 64.4 °F - 32.0 °F 30% 29.58 in 10.0 mi West 10.4 mph 17.3 mph N/A   Clear
3:35 PM 64.4 °F - 32.0 °F 30% 29.58 in 10.0 mi West 10.4 mph - N/A   Clear
3:36 PM 64.4 °F - 32.0 °F 30% 29.58 in 10.0 mi West 9.2 mph - N/A   Clear
3:55 PM 64.4 °F - 32.0 °F 30% 29.58 in 10.0 mi West 5.8 mph - N/A   Clear
3:56 PM 64.4 °F - 32.0 °F 30% 29.58 in 10.0 mi West 5.8 mph - N/A   Clear
4:18 PM 64.4 °F - 32.0 °F 30% 29.58 in 10.0 mi West 8.1 mph - N/A   Clear
4:36 PM 62.6 °F - 32.0 °F 32% 29.58 in 10.0 mi West 10.4 mph 19.6 mph N/A   Clear
4:55 PM 62.6 °F - 32.0 °F 32% 29.59 in 10.0 mi WSW 6.9 mph - N/A   Clear
5:15 PM 62.6 °F - 32.0 °F 32% 29.59 in 10.0 mi West 6.9 mph - N/A   Clear
5:35 PM 62.6 °F - 30.2 °F 30% 29.60 in 10.0 mi WSW 9.2 mph 17.3 mph N/A   Clear
5:40 PM 62.6 °F - 30.2 °F 30% 29.60 in 10.0 mi WSW 6.9 mph - N/A   Clear
5:57 PM 60.8 °F - 32.0 °F 34% 29.61 in 10.0 mi West 8.1 mph - N/A   Clear
6:15 PM 59.0 °F - 30.2 °F 34% 29.61 in 10.0 mi West 5.8 mph - N/A   Clear
6:35 PM 57.2 °F - 30.2 °F 36% 29.62 in 10.0 mi WSW 4.6 mph - N/A   Clear
6:36 PM 57.2 °F - 30.2 °F 36% 29.62 in 10.0 mi WSW 4.6 mph - N/A   Clear
6:55 PM 55.4 °F - 30.2 °F 38% 29.63 in 10.0 mi WSW 4.6 mph - N/A   Clear
6:56 PM 55.4 °F - 30.2 °F 38% 29.63 in 10.0 mi West 4.6 mph - N/A   Clear
7:37 PM 53.6 °F - 30.2 °F 41% 29.64 in 10.0 mi WSW 4.6 mph - N/A   Clear
7:55 PM 53.6 °F - 30.2 °F 41% 29.65 in 10.0 mi WSW 4.6 mph - N/A   Clear
7:56 PM 53.6 °F - 30.2 °F 41% 29.65 in 10.0 mi WSW 3.5 mph - N/A   Clear
8:15 PM 51.8 °F - 30.2 °F 44% 29.65 in 10.0 mi WSW 3.5 mph - N/A   Clear
8:35 PM 50.0 °F - 30.2 °F 47% 29.66 in 10.0 mi West 4.6 mph - N/A   Clear
8:40 PM 50.0 °F - 30.2 °F 47% 29.66 in 10.0 mi West 4.6 mph - N/A   Clear
8:57 PM 50.0 °F - 30.2 °F 47% 29.67 in 10.0 mi West 4.6 mph - N/A   Clear
9:15 PM 50.0 °F - 30.2 °F 47% 29.67 in 10.0 mi WSW 4.6 mph - N/A   Clear
9:35 PM 50.0 °F - 30.2 °F 47% 29.67 in 10.0 mi WSW 3.5 mph - N/A   Clear
9:36 PM 50.0 °F - 30.2 °F 47% 29.67 in 10.0 mi Calm Calm - N/A   Clear
9:55 PM 44.6 °F - 30.2 °F 57% 29.67 in 10.0 mi Calm Calm - N/A   Clear
9:56 PM 44.6 °F - 30.2 °F 57% 29.67 in 10.0 mi Calm Calm - N/A   Clear
10:19 PM 42.8 °F - 30.2 °F 61% 29.68 in 10.0 mi Calm Calm - N/A   Clear
10:36 PM 42.8 °F - 32.0 °F 66% 29.68 in 10.0 mi Calm Calm - N/A   Clear
10:55 PM 39.2 °F - 32.0 °F 75% 29.68 in 10.0 mi Calm Calm - N/A   Clear
10:56 PM 39.2 °F - 32.0 °F 75% 29.68 in 10.0 mi Calm Calm - N/A   Clear
11:15 PM 37.4 °F - 32.0 °F 81% 29.68 in 10.0 mi Calm Calm - N/A   Clear
11:16 PM 37.4 °F - 32.0 °F 81% 29.68 in 10.0 mi Calm Calm - N/A   Clear
11:35 PM 37.4 °F - 32.0 °F 81% 29.69 in 10.0 mi Calm Calm - N/A   Clear
11:58 PM 35.6 °F - 32.0 °F 87% 29.69 in 10.0 mi Calm Calm - N/A   Clear